Location: *
(43.4667°N, 11.6833°E)
Time: 20:23:23
(UTC+00:00)

Cosmos 1328 Rocket - Pass Details

Date: 19 July 2019
Orbit: 600 x 628 km, 82.5° (Epoch: 25 August)

Event Time Altitude Azimuth Distance (km) Brightness Sun altitude
Rises 19:39:55 0° 356° (N) 2,898 7.7 -8.4°
Reaches altitude 10° 19:42:12 10° 1° (N) 1,983 6.7 -8.7°
Maximum altitude 19:46:30 53° 79° (ENE) 754 3.8 -9.3°
Enters shadow 19:50:37 11° 156° (SSE) 1,909 5.5 -9.9°
